User: anonymous   Login
Location: *
(40.7765°S, 106.5327°E)
Time: 20:01:30
(UTC+00:00)
Language:

NOAA 11 - Orbit

View from above orbital plane
View from above orbital plane
View from above satellite
View from above satellite

Ground track
Ground track

The orbit data is extracted from the following two-line orbital elements,

1 19531U 88089A   22229.49425679  .00000024  00000-0  33012-4 0  9994
2 19531  98.4281 215.2334 0011345   9.0440 351.0937 14.15318087749459
Epoch (UTC): 17 August 2022 11:51:43
Eccentricity: 0.0011345
inclination: 98.4281°
perigee height: 833 km
apogee height: 849 km
right ascension of ascending node: 215.2334°
argument of perigee: 9.0440°
revolutions per day: 14.15318087
mean anomaly at epoch: 351.0937°
orbit number at epoch: 74945

The dashed part of the orbit path shows where the satellite is in the earth's shadow,  

DLR